Location: Baia Mare
(47.6567°N, 23.5850°E)
Time: 11:40:25
(UTC+02:00)

ISS - Pass Details

Date: 24 January 2019
Orbit: 404 x 407 km, 51.6° (Epoch: 16 January)

Event Time Altitude Azimuth Distance (km) Brightness Sun altitude
Rises 20:18:55 0° 258° (WSW) 2,322 1.1 -30.9°
Reaches altitude 10° 20:21:01 10° 262° (W) 1,464 -0.2 -31.3°
Enters shadow 20:21:08 11° 262° (W) 1,415 -0.3 -31.3°
